Back to catalog

STARLINK-35314

AliveCommunicationsVLEO
NORAD 65837·PAYLOAD·🇺🇸 United States

Launched Sep 29, 2025 from Vandenberg Space Force Base

Loading…

Next Passes (next 24 hours)

TLE

FreshSource: CelesTrak SupGP

Epoch: Sep 14, 2026, 14:09 UTC

1 65837C 25221Q   26257.59006944  .00034213  00000+0  10102-2 0  2575
2 65837  53.1564 287.3259 0001296  94.1798 338.1129 15.34391453    13

Track STARLINK-35314 in real time with AllMySat

Download on the App Store